Weather Roundup
Issued by NWS Chicago, IL

Home | Current Version | Previous Version | Graphics & Text | Print | Product List | Glossary On
Versions: 1 2 3 4 5 6 7 8 9 10 11 12 13 14 15 16 17 18 19 20 21 22 23 24 25 26 27 28 29 30 31 32 33 34 35 36 37 38 39 40 41 42 43 44 45 46 47 48 49 50
000
NZUS59 KLOT 030506
HRRLOT

CHICAGO AREA WEATHER ROUNDUP
NATIONAL WEATHER SERVICE CHICAGO/ROMEOVILLE IL
1100 PM CST MON MAR 02 2015

NOTE: "FAIR" INDICATES FEW OR NO CLOUDS BELOW 12,000 FEET WITH NO
SIGNIFICANT WEATHER AND/OR OBSTRUCTIONS TO VISIBILITY.

* THESE STATIONS ARE NOT UNDER NWS QUALITY CONTROL. THEY ALSO MAY NOT
  REPORT WEATHER SUCH AS PRECIPITATION OR FOG.

ILZ005-006-012>014-019>023-030600-
NORTHEAST ILLINOIS

CITY           SKY/WX    TMP DP  RH WIND       PRES   REMARKS
OHARE          CLOUDY    25  15  66 S6        30.26F WCI  18
MIDWAY         CLOUDY    28  14  55 S7        30.27F WCI  21
AURORA         CLOUDY    25  16  68 SE7       30.26F WCI  17
LANSING*       CLOUDY    26  17  67 SE5       30.29F WCI  20
JOLIET*        CLOUDY    25  17  72 SE5       30.27F WCI  19
WAUKEGAN       CLOUDY    26  16  65 S8        30.25F WCI  18
DUPAGE AIRPORT CLOUDY    25  16  68 SE8       30.25F WCI  16
WHEELING       CLOUDY    27  13  55 S8        30.28F WCI  19
KANKAKEE*      CLOUDY    25  19  78 E7        30.28F WCI  17
MORRIS*        CLOUDY    25  20  83 E6        30.25F WCI  18
LEWIS AIRPORT* CLOUDY    25  17  70 S7        30.27F WCI  17
NORTHERLY IS     N/A     27  14  58 S6          N/A  WCI  21
$$

WIZ051-052-058>065-066-070>072-030600-
SOUTHEAST WISCONSIN

CITY           SKY/WX    TMP DP  RH WIND       PRES   REMARKS
MILWAUKEE      CLOUDY    26  17  68 S7        30.25F WCI  18
KENOSHA*       CLOUDY    26  17  68 S5        30.25F WCI  20
RACINE*        CLOUDY    26  16  65 SW8       30.27F WCI  18
BURLINGTON     CLOUDY    23  15  70 S5        30.23F WCI  17
WAUKESHA       CLOUDY    23  14  68 S5        30.24F WCI  17
WEST BEND      CLOUDY    25  14  63 S6        30.23F WCI  18
$$

INZ001>003-010>013-019-020-030600-
NORTHWEST INDIANA

CITY           SKY/WX    TMP DP  RH WIND       PRES   REMARKS
GARY*          CLOUDY    28  13  51 SE5       30.29F WCI  23
MICHIGAN CITY* NOT AVBL
RENSSELAER*    NOT AVBL
VALPARAISO     CLOUDY    25  15  66 SE5       30.29F WCI  19
$$

LMZ740>746-030600-
SOUTHERN LAKE MICHIGAN

STATION/POSITION TIME  SKY/WX   TEMP WIND        PRES    VSBY
                                AIR  DIR/SP/G
                 (UTC)          (F)  (DEG/KT/KT) (MB)    (MI)
HARRISON CRIB    0500            27  170/ 13/ 16   N/A
BURNHAM HARBOR   0500            27  180/  5/  8   N/A
CALUMET HARBOR   0500            26                N/A
BURNS HARBOR     NOT AVBL
MICHIGAN CITY    0500            26  130/  6/  8   N/A
$$

ABBREVIATIONS USED IN REMARKS
   TC - TEMPERATURE IN CELSIUS
  WCI - WIND CHILL INDEX
   HX - HEAT INDEX
  VSB - VISIBILITY
$$



USA.gov is the U.S. government's official web portal to all federal, state and local government web resources and services.